This is the latest recevied weather packets stored in our database for station/object NI4CE-11. If no packets are shown the sender has not sent any weather packets the latest 10 day(s).
| Time | Temp. | Humidity | Pressure | Rain* | Wind** | Luminosity | Snow |
|---|---|---|---|---|---|---|---|
| 1777770902 | 23.33° C | 100% | 1012.5 hPa | 0 mm | - | - | - |
| 1777770852 | 22.78° C | 100% | 1012.3 hPa | 0 mm | - | - | - |
| 1777770602 | 22.78° C | 100% | 1012.3 hPa | 0 mm | - | - | - |
| 1777770472 | 24.44° C | 100% | 1012.2 hPa | 0 mm | - | - | - |
| 1777770302 | 23.89° C | 100% | 1012.5 hPa | 0 mm | - | - | - |
| 1777770002 | 22.78° C | 100% | 1012.5 hPa | 0 mm | - | - | - |
| 1777769800 | 23.89° C | 100% | 1012.3 hPa | 0 mm | - | - | - |
| 1777769702 | 22.78° C | 100% | 1012.5 hPa | 0 mm | - | - | - |
| 1777769503 | 22.22° C | 100% | 1012.2 hPa | 0 mm | - | - | - |
| 1777769403 | 23.89° C | 100% | 1012.3 hPa | 0 mm | - | - | - |
| 1777769102 | 22.22° C | 100% | 1012.2 hPa | 0 mm | - | - | - |
| 1777768803 | 23.33° C | 100% | 1012.3 hPa | 0 mm | - | - | - |
| 1777768701 | 24.44° C | 100% | 1012.2 hPa | 0 mm | - | - | - |
| 1777768502 | 24.44° C | 100% | 1012.2 hPa | 0 mm | - | - | - |
| 1777768202 | 22.78° C | 100% | 1012.2 hPa | 0 mm | - | - | - |
| 1777767902 | 23.89° C | 100% | 1012.2 hPa | 0 mm | - | - | - |
| 1777767603 | 24.44° C | 100% | 1011.8 hPa | 0 mm | - | - | - |
| 1777767401 | 22.78° C | 100% | 1011.2 hPa | 0 mm | - | - | - |
| 1777767346 | 22.78° C | 100% | 1011.1 hPa | 0.25 mm | - | - | - |
| 1777767303 | 22.22° C | 100% | 1011.6 hPa | 0 mm | - | - | - |
| 1777767003 | 22.78° C | 100% | 1011.2 hPa | 0 mm | - | - | - |
| 1777766703 | 22.78° C | 100% | 1010.9 hPa | 0.25 mm | - | - | - |
| 1777766403 | 22.22° C | 100% | 1010.6 hPa | 0.25 mm | - | - | - |
| 1777766103 | 22.78° C | 100% | 1011.1 hPa | 0.25 mm | - | - | - |
| 1777765975 | 23.33° C | 100% | 1011.2 hPa | 0.25 mm | - | - | - |
* Rain latest hour (hover to see other rain measurements)
** Current wind speed in m/s (hover to see current wind gust speed)